sat.trackr.live / text

‹ back to catalog

STARLINK-4666

NORAD 53789 · 2022-111S

PAYLOAD ACTIVE UNKNOWN

§ Identity

Operator
Country
US
Launch date
2022-09-11
Launch site
AFETR
Launch vehicle
Mass (kg)
RCS (m²)

Purposes: comms

External: N2YO · Heavens-Above · Gunter

§ Orbital elements

Epoch: 2026-05-24T19:45:16.965792Z

Period
95.44 min
Inclination
53.2136°
Eccentricity
0.0001363
Mean motion
15.08845154 rev/d
Perigee alt
538.8 km
Apogee alt
540.7 km
Semi-major
6,917.9 km
B*
2.6299e-4
RAAN
292.0649°
Arg perigee
101.2461°
Mean anomaly
258.8685°
Rev number
20,518

§ Raw data

STARLINK-46661 53789U 22111S   26144.82311303  .00003901  00000+0  26299-3 0  99902 53789  53.2136 292.0649 0001363 101.2461 258.8685 15.08845154205183

JSON: /api/v1/satellites/53789 · /tle

For live sub-satellite position, see the globe view (requires WebGL).

§ Visibility from observer

Set your observer location to see the next 7 days of passes ≥ 10°. The values pass through the URL so the page stays shareable.

No JS? Fill the form by hand. The geolocation button needs JavaScript.